Regional Weather Roundup
Issued by NWS

Home | Current Version | Previous Version | Text Only | Print | Product List | Glossary Off
Versions: 1 2 3 4 5 6 7 8 9 10 11 12 13 14 15 16 17 18 19 20 21 22 23 24 25 26 27 28 29 30 31 32 33 34 35 36 37 38 39 40 41 42 43 44 45 46 47 48 49 50

000
ASUS45 KBOU 260807
RWRCO

WEATHER ROUNDUP FOR COLORADO
NATIONAL WEATHER SERVICE DENVER/BOULDER CO
200 AM MDT WED JUL 26 2017

NOTE: "FAIR" INDICATES FEW OR NO CLOUDS BELOW 12000 FEET WITH NO
SIGNIFICANT WEATHER AND/OR OBSTRUCTIONS TO VISIBILITY.

COZ001>005-013-030-031-260900-
...NORTHWEST COLORADO...

CITY           SKY/WX    TMP DP  RH WIND       PRES   REMARKS
CRAIG          CLOUDY    62  58  86 CALM      30.27S
HAYDEN         CLOUDY    59  54  82 SW3       30.28S
MEEKER         CLOUDY    61  60  97 CALM      30.27F
RABBIT EARS PA CLOUDY    50  50 100 SW6       30.53F FOG
STEAMBOAT SPGS CLOUDY    59  57  94 CALM      30.29F
WALDEN         CLOUDY    55  54  94 CALM      30.37F
$$

COZ006>008-011-260900-
...WEST CENTRAL VALLEYS...

CITY           SKY/WX    TMP DP  RH WIND       PRES   REMARKS
GRAND JUNCTION FAIR      67  66  97 CALM      30.17S
MONTROSE       MOCLDY    64  63  96 SE5       30.25F
EAGLE          CLOUDY    59  56  89 E3        30.31S
RIFLE          CLOUDY    68  58  70 CALM      30.21S
DELTA          NOT AVBL
NUCLA          FAIR      61  57  88 SW3       30.29S
$$

COZ017>023-064>068-260900-
...SOUTHWEST COLORADO...

CITY           SKY/WX    TMP DP  RH WIND       PRES   REMARKS
DURANGO        MOCLDY    61  57  87 N5        30.31S
CORTEZ         FAIR      59  58  96 NE3       30.26F
PAGOSA SPRINGS FAIR      59  58  96 CALM      30.39S
TELLURIDE      FAIR      56  52  87 CALM      30.49F
WOLF CREEK PAS FOG       45  45 100 SW10      30.70S VSB<1/4
$$

COZ009-010-012-014-032>034-037-058>063-260900-
...CENTRAL COLORADO...

CITY           SKY/WX    TMP DP  RH WIND       PRES   REMARKS
ASPEN          CLOUDY    57  54  89 SW3       30.36S
BUENA VISTA    MOCLDY    56  52  89 SW3       30.38S
COPPER MTN     FAIR      54  43  66 S3        30.65S
BERTHOUD PASS  HAZE      43  30  61 W14       30.67F VSB 1/4
COTTONWOOD PAS CLOUDY    59  46  63 CALM      30.50F
GUNNISON       FAIR      58  53  84 NW3       30.39S
KREMMLING      CLOUDY    63  55  77 CALM      30.34F
LEADVILLE      MOCLDY    48  46  93 CALM      30.50S
MONARCH PASS   CLOUDY    46  45  93 W15       30.75F
SALIDA         MOCLDY    59  57  94 SW6       30.43S
SUNLIGHT       CLOUDY    48  46  93 SW7       30.58F
WILKERSON PASS MOCLDY    50  45  81 SW9       30.61F
$$

COZ069>075-260900-
...SAN LUIS VALLEY/SANGRE DE CRISTO MOUNTAINS...

CITY           SKY/WX    TMP DP  RH WIND       PRES   REMARKS
ALAMOSA        FAIR      56  56 100 S3        30.34S
DEL NORTE      FAIR      56  54  94 W8        30.38S
LA VETA PASS   NOT AVBL
SAGUACHE         N/A    N/A N/A N/A MISG        N/A
$$

COZ035-036-038>040-260900-
...NORTHERN COLORADO FRONT RANGE...

CITY           SKY/WX    TMP DP  RH WIND       PRES   REMARKS
DENVER INTL AP MOCLDY    67  57  70 NW8       30.18S
DMNS CITY PARK   N/A     66  60  80 N7        30.18S
AURORA         MOCLDY    64  58  80 N8        30.21R
FRONT RANGE AP MOCLDY    64  61  88 N7        30.20S
ERIE MUNI ARPT FAIR      65  61  89 S3        30.17S
BOULDER MUN AP FAIR      66  59  77 W3        30.18S
CENTENNIAL     FAIR      64  61  90 CALM      30.21R
BROOMFIELD     FAIR      64  61  88 NW6       30.21S
FORT COLLINS   FAIR      66  59  78 N7        30.16F
LONGMONT       FAIR      66  60  78 W5        30.18F
$$

COZ041-046-047-076>085-087-088-260900-
...PIKES PEAK/PALMER DIVIDE AND SOUTHERN FOOTHILLS...

CITY           SKY/WX    TMP DP  RH WIND       PRES   REMARKS
COLO. SPRINGS  MOCLDY    67  58  72 NW9       30.20F
A. F. ACADEMY  FAIR      61  55  79 N9        30.23F
SCHRIEVER AFB  FAIR      65  55  68 N10       30.20F
CHEYENNE MTN   FAIR      66  54  63 NW12      30.19F
ELLICOTT       FAIR     N/A N/A N/A NW5       30.18F
FALCON           N/A     64  53  68 N9        30.25F
FORT CARSON    FAIR      64  59  82 N7        30.17F
LIMON          FAIR      65  59  81 NW13      30.13F
MONUMENT HILL  FAIR      55  54  94 NW3       30.29F
CANON CITY     CLEAR     68  61  77 W13       30.15R
WALSENBURG     FAIR      68  59  73 SW6       30.20F
TRINIDAD       FAIR      67  55  65 S5        30.19F
$$

COZ042>045-048>051-090-091-260900-
...NORTHEAST COLORADO...

CITY           SKY/WX    TMP DP  RH WIND       PRES   REMARKS
GREELEY ARPT   FAIR      67  58  72 NW9       30.14S
AKRON          FAIR      69  56  62 NW12      30.08R
BURLINGTON     FAIR      70  61  73 W10       30.04S
WRAY           NOT AVBL
YUMA           NOT AVBL
STERLING       FAIR      73  61  64 N14       30.04R
HOLYOKE        FAIR      73  64  73 N16       29.98S
FORT MORGAN    FAIR      70  54  57 N16       30.10R
$$

COZ086-089-092>099-260900-
...SOUTHEAST COLORADO...

CITY           SKY/WX    TMP DP  RH WIND       PRES   REMARKS
PUEBLO         FAIR      69  63  81 W9        30.10R
LA JUNTA       FAIR      73  60  63 W6        30.05F
LAMAR          FAIR      72  64  76 W12       29.99F
SPRINGFIELD      N/A     74  59  59 NW9       30.07R
$$



USA.gov is the U.S. government's official web portal to all federal, state and local government web resources and services.